Flag for Canada Weather past 2 weeks in Laval, Quebec, Canada

Now
32 °F

Passing clouds.


Feels Like: 23 °F
Forecast: N/A
Wind: 12 mph from West

Location: Montreal / Mirabel


UV Index: N/A

Visibility: 45 mi


Pressure: 30.51 "Hg

Humidity: 40%

Dew point: 10 °F

Location of LavalLocation

Historic Weather in Laval

°F

Laval temperature yesterday

Maximum temperature yesterday: 59 °F (at 11:00 AM)
Minimum temperature yesterday: 23 °F (at 11:00 PM)
Average temperature yesterday: 44 °F

Past Weeks' High & Low Weather Summary

 TemperatureHumidityPressure
High61 °F (Apr 14, 4:00 PM)100% (Apr 4, 11:00 PM)30.49 "Hg (Apr 4, 11:00 PM)
Low18 °F (Apr 16, 5:00 AM)26% (Apr 9, 5:00 PM)29.23 "Hg (Apr 8, 2:00 PM)
Average38 °F68%29.90 "Hg
* Reported Apr 1 5:00 PM — Apr 16 5:00 PM, Laval, Weather by CustomWeather, © 2014

Note: Actual official high and low records may vary slightly from our data, if they occured in-between our weather recording intervals... More about our weather records

Advertising

Historic Weather Conditions — Data for Previous 24 hours

 ConditionsComfort  
Time TempWeatherWind HumidityBarometerVisibility
5:00 PM
Apr 16
32 °FScattered clouds.16 mph37%30.49 "Hg45 mi
4:00 PM32 °FScattered clouds.10 mph37%30.48 "Hg45 mi
3:00 PM32 °FScattered clouds.12 mph34%30.47 "Hg45 mi
2:00 PM30 °FPassing clouds.14 mph34%30.46 "Hg45 mi
1:00 PM28 °FPassing clouds.9 mph37%30.45 "Hg45 mi
12:00 PM27 °FPassing clouds.16 mph39%30.43 "Hg45 mi
11:00 AM23 °FPassing clouds.7 mph42%30.42 "Hg45 mi
10:00 AM21 °FPassing clouds.9 mph42%30.39 "Hg45 mi
9:00 AM19 °FPassing clouds.13 mph45%30.37 "Hg45 mi
8:00 AM18 °FPassing clouds.10 mph53%30.31 "Hg25 mi
7:00 AM18 °FPassing clouds.7 mph53%30.26 "Hg45 mi
6:00 AM18 °FPassing clouds.7 mph58%30.18 "Hg45 mi
5:00 AM18 °FPassing clouds.8 mph58%30.12 "Hg25 mi
4:00 AM19 °FPassing clouds.10 mph53%30.10 "Hg25 mi
3:00 AM19 °FPartly cloudy.16 mph58%30.06 "Hg25 mi
2:00 AM21 °FPassing clouds.13 mph63%30.03 "Hg25 mi
1:00 AM21 °FMostly cloudy.10 mph63%29.98 "Hg25 mi
12:00 AM23 °FLight snow. Mostly cloudy.10 mph68%29.97 "Hg25 mi
11:00 PM
Apr 15
23 °FLight snow. Mostly cloudy.12 mph63%29.90 "Hg25 mi
10:00 PM25 °FLight snow. Mostly cloudy.10 mph69%29.88 "Hg25 mi
9:00 PM25 °FLight snow. Overcast.15 mph74%29.84 "Hg10 mi
7:00 PM30 °FLight snow. More clouds than sun.9 mph80%29.72 "Hg10 mi
6:00 PM32 °FLight snow. More clouds than sun.10 mph87%29.67 "Hg4 mi
Weather by CustomWeather, © 2014

See weather overview